Time,TemperatureF,DewpointF,PressureIn,WindDirection,WindDirectionDegrees,WindSpeedMPH,WindSpeedGustMPH,Humidity,HourlyPrecipIn,Conditions,Clouds,dailyrainin,SoftwareType,DateUTC
2013-03-02 00:02:00,25.0,17.0,30.07,North,355,4.0,4.0,70,0.00,,,0.04,,2013-03-02 05:02:00,
2013-03-02 00:12:00,25.0,17.0,30.07,North,355,4.0,4.0,70,0.00,,,0.04,,2013-03-02 05:12:00,
2013-03-02 00:22:00,25.0,17.0,30.06,NNE,13,0.0,5.0,71,0.00,,,0.04,,2013-03-02 05:22:00,
2013-03-02 00:32:00,25.0,17.0,30.06,North,0,0.0,2.0,71,0.00,,,0.04,,2013-03-02 05:32:00,
2013-03-02 00:42:00,25.0,17.0,30.06,North,0,0.0,2.0,71,0.00,,,0.04,,2013-03-02 05:42:00,
2013-03-02 00:52:00,25.0,17.0,30.06,North,351,0.0,4.0,72,0.00,,,0.04,,2013-03-02 05:52:00,
2013-03-02 01:01:00,24.0,16.0,30.06,NNW,345,0.0,2.0,72,0.00,,,0.04,,2013-03-02 06:01:00,
2013-03-02 01:11:00,24.0,16.0,30.06,NNW,345,0.0,2.0,72,0.00,,,0.04,,2013-03-02 06:11:00,
2013-03-02 01:21:00,24.0,16.0,30.06,NNE,26,1.0,1.0,72,0.00,,,0.04,,2013-03-02 06:21:00,
2013-03-02 01:32:00,24.0,16.0,30.06,NE,40,0.0,3.0,72,0.00,,,0.04,,2013-03-02 06:32:00,
2013-03-02 01:42:00,24.0,16.0,30.06,NE,40,0.0,3.0,72,0.00,,,0.04,,2013-03-02 06:42:00,
2013-03-02 01:52:00,24.0,16.0,30.06,NNE,25,0.0,3.0,72,0.00,,,0.04,,2013-03-02 06:52:00,
2013-03-02 02:01:00,23.0,15.0,30.06,North,350,0.0,5.0,72,0.00,,,0.04,,2013-03-02 07:01:00,
2013-03-02 02:11:00,23.0,16.0,30.05,North,0,0.0,3.0,73,0.00,,,0.04,,2013-03-02 07:11:00,
2013-03-02 02:22:00,23.0,16.0,30.05,North,0,0.0,3.0,73,0.00,,,0.04,,2013-03-02 07:22:00,
2013-03-02 02:32:00,23.0,16.0,30.05,NNW,344,1.0,4.0,73,0.00,,,0.04,,2013-03-02 07:32:00,
2013-03-02 02:42:00,23.0,16.0,30.05,NNW,344,1.0,4.0,73,0.00,,,0.04,,2013-03-02 07:42:00,
2013-03-02 02:52:00,23.0,16.0,30.05,NNE,28,0.0,0.0,74,0.00,,,0.04,,2013-03-02 07:52:00,
2013-03-02 03:01:00,23.0,16.0,30.05,North,0,0.0,4.0,74,0.00,,,0.04,,2013-03-02 08:01:00,
2013-03-02 03:11:00,23.0,16.0,30.05,North,0,0.0,4.0,74,0.00,,,0.04,,2013-03-02 08:11:00,
2013-03-02 03:22:00,23.0,16.0,30.05,NNE,21,0.0,3.0,75,0.00,,,0.04,,2013-03-02 08:22:00,
2013-03-02 03:32:00,23.0,17.0,30.04,North,0,0.0,3.0,76,0.00,,,0.04,,2013-03-02 08:32:00,
2013-03-02 03:42:00,23.0,17.0,30.04,North,0,0.0,3.0,76,0.00,,,0.04,,2013-03-02 08:42:00,
2013-03-02 03:52:00,22.0,16.0,30.03,NNE,14,0.0,2.0,76,0.00,,,0.04,,2013-03-02 08:52:00,
2013-03-02 04:02:00,22.0,16.0,30.03,NW,316,0.0,3.0,77,0.00,,,0.04,,2013-03-02 09:02:00,
2013-03-02 04:11:00,22.0,16.0,30.03,North,5,0.0,1.0,77,0.00,,,0.04,,2013-03-02 09:11:00,
2013-03-02 04:22:00,22.0,16.0,30.03,North,5,0.0,1.0,77,0.00,,,0.04,,2013-03-02 09:22:00,
2013-03-02 04:32:00,22.0,16.0,30.03,NE,36,0.0,3.0,77,0.00,,,0.04,,2013-03-02 09:32:00,
2013-03-02 04:42:00,22.0,16.0,30.03,NE,36,0.0,3.0,77,0.00,,,0.04,,2013-03-02 09:42:00,
2013-03-02 04:52:00,22.0,16.0,30.04,North,11,0.0,2.0,78,0.00,,,0.04,,2013-03-02 09:52:00,
2013-03-02 05:01:00,22.0,16.0,30.03,North,0,1.0,3.0,78,0.00,,,0.04,,2013-03-02 10:01:00,
2013-03-02 05:16:00,22.0,16.0,30.03,North,0,1.0,3.0,78,0.00,,,0.04,,2013-03-02 10:16:00,
2013-03-02 05:22:00,22.0,16.0,30.03,NE,47,0.0,2.0,78,0.00,,,0.04,,2013-03-02 10:22:00,
2013-03-02 05:32:00,22.0,16.0,30.03,NE,53,0.0,2.0,79,0.00,,,0.04,,2013-03-02 10:32:00,
2013-03-02 05:43:00,22.0,16.0,30.03,NE,53,0.0,2.0,79,0.00,,,0.04,,2013-03-02 10:43:00,
2013-03-02 05:52:00,22.0,16.0,30.03,North,9,0.0,0.0,79,0.00,,,0.04,,2013-03-02 10:52:00,
2013-03-02 06:01:00,22.0,16.0,30.03,ESE,105,0.0,2.0,79,0.00,,,0.04,,2013-03-02 11:01:00,
2013-03-02 06:11:00,22.0,16.0,30.03,ESE,105,0.0,2.0,79,0.00,,,0.04,,2013-03-02 11:11:00,
2013-03-02 06:21:00,22.0,17.0,30.03,North,0,0.0,1.0,80,0.00,,,0.04,,2013-03-02 11:21:00,
2013-03-02 06:32:00,21.0,16.0,30.03,NW,315,0.0,2.0,80,0.00,,,0.04,,2013-03-02 11:32:00,
2013-03-02 06:42:00,21.0,16.0,30.03,NW,315,0.0,2.0,80,0.00,,,0.04,,2013-03-02 11:42:00,
2013-03-02 06:52:00,21.0,16.0,30.03,NE,36,0.0,2.0,80,0.00,,,0.04,,2013-03-02 11:52:00,
2013-03-02 07:02:00,21.0,16.0,30.03,North,9,0.0,0.0,81,0.00,,,0.04,,2013-03-02 12:02:00,
2013-03-02 07:11:00,21.0,16.0,30.03,North,9,0.0,0.0,81,0.00,,,0.04,,2013-03-02 12:11:00,
2013-03-02 07:22:00,21.0,16.0,30.04,NNW,338,0.0,2.0,82,0.00,,,0.04,,2013-03-02 12:22:00,
2013-03-02 07:33:00,21.0,16.0,30.04,NNW,330,0.0,4.0,82,0.00,,,0.04,,2013-03-02 12:33:00,
2013-03-02 07:43:00,21.0,16.0,30.04,NNW,330,0.0,4.0,82,0.00,,,0.04,,2013-03-02 12:43:00,
2013-03-02 07:53:00,21.0,16.0,30.04,NW,317,0.0,3.0,82,0.00,,,0.04,,2013-03-02 12:53:00,
2013-03-02 08:01:00,22.0,17.0,30.04,WNW,285,0.0,2.0,82,0.00,,,0.04,,2013-03-02 13:01:00,
2013-03-02 08:11:00,22.0,17.0,30.04,WNW,285,0.0,2.0,82,0.00,,,0.04,,2013-03-02 13:11:00,
2013-03-02 08:22:00,22.0,17.0,30.04,NE,54,0.0,3.0,82,0.00,,,0.04,,2013-03-02 13:22:00,
2013-03-02 08:32:00,22.0,17.0,30.04,North,350,0.0,5.0,82,0.00,,,0.04,,2013-03-02 13:32:00,
2013-03-02 08:42:00,22.0,17.0,30.04,North,350,0.0,5.0,82,0.00,,,0.04,,2013-03-02 13:42:00,
2013-03-02 08:52:00,22.0,17.0,30.04,North,0,0.0,4.0,82,0.00,,,0.04,,2013-03-02 13:52:00,
2013-03-02 09:01:00,22.0,17.0,30.05,North,355,0.0,2.0,82,0.00,,,0.04,,2013-03-02 14:01:00,
2013-03-02 09:11:00,22.0,17.0,30.05,North,355,0.0,2.0,82,0.00,,,0.04,,2013-03-02 14:11:00,
2013-03-02 09:22:00,23.0,18.0,30.05,NW,326,0.0,2.0,82,0.00,,,0.04,,2013-03-02 14:22:00,
2013-03-02 09:32:00,23.0,18.0,30.05,NW,318,0.0,2.0,81,0.00,,,0.04,,2013-03-02 14:32:00,
2013-03-02 09:42:00,23.0,18.0,30.05,NW,318,0.0,2.0,81,0.00,,,0.04,,2013-03-02 14:42:00,
2013-03-02 09:52:00,23.0,18.0,30.05,North,0,2.0,4.0,80,0.00,,,0.04,,2013-03-02 14:52:00,
2013-03-02 10:02:00,24.0,18.0,30.05,North,11,0.0,3.0,79,0.00,,,0.04,,2013-03-02 15:02:00,
2013-03-02 10:11:00,24.0,18.0,30.05,North,11,0.0,3.0,79,0.00,,,0.04,,2013-03-02 15:11:00,
2013-03-02 10:22:00,24.0,18.0,30.04,North,355,3.0,7.0,79,0.00,,,0.04,,2013-03-02 15:22:00,
2013-03-02 10:32:00,24.0,18.0,30.04,NW,320,0.0,3.0,77,0.00,,,0.04,,2013-03-02 15:32:00,
2013-03-02 10:42:00,24.0,18.0,30.04,NW,320,0.0,3.0,77,0.00,,,0.04,,2013-03-02 15:42:00,
2013-03-02 10:52:00,24.0,18.0,30.04,NNW,335,0.0,5.0,77,0.00,,,0.04,,2013-03-02 15:52:00,
2013-03-02 11:02:00,25.0,18.0,30.04,NNE,13,5.0,5.0,75,0.00,,,0.04,,2013-03-02 16:02:00,
2013-03-02 11:11:00,25.0,18.0,30.04,NNE,13,5.0,5.0,75,0.00,,,0.04,,2013-03-02 16:11:00,
2013-03-02 11:21:00,24.0,17.0,30.05,North,0,1.0,9.0,74,0.00,,,0.04,,2013-03-02 16:21:00,
2013-03-02 11:32:00,25.0,18.0,30.05,North,5,2.0,4.0,75,0.00,,,0.04,,2013-03-02 16:32:00,
2013-03-02 11:42:00,25.0,18.0,30.05,North,5,2.0,4.0,75,0.00,,,0.04,,2013-03-02 16:42:00,
2013-03-02 11:52:00,25.0,18.0,30.05,North,9,2.0,4.0,73,0.00,,,0.04,,2013-03-02 16:52:00,
2013-03-02 12:01:00,25.0,17.0,30.05,WNW,293,0.0,4.0,72,0.00,,,0.04,,2013-03-02 17:01:00,
2013-03-02 12:12:00,25.0,17.0,30.05,WNW,293,0.0,4.0,72,0.00,,,0.04,,2013-03-02 17:12:00,
2013-03-02 12:21:00,25.0,17.0,30.04,NNE,19,0.0,3.0,72,0.00,,,0.04,,2013-03-02 17:21:00,
2013-03-02 12:32:00,26.0,18.0,30.04,North,0,1.0,5.0,72,0.00,,,0.04,,2013-03-02 17:32:00,
2013-03-02 12:42:00,26.0,18.0,30.04,North,0,1.0,5.0,72,0.00,,,0.04,,2013-03-02 17:42:00,
2013-03-02 12:52:00,26.0,18.0,30.04,NNE,32,3.0,4.0,72,0.00,,,0.04,,2013-03-02 17:52:00,
2013-03-02 13:02:00,26.0,17.0,30.03,NNW,344,0.0,3.0,69,0.00,,,0.04,,2013-03-02 18:02:00,
2013-03-02 13:11:00,26.0,17.0,30.03,NNW,344,0.0,3.0,69,0.00,,,0.04,,2013-03-02 18:11:00,
2013-03-02 13:22:00,27.0,18.0,30.03,NW,320,0.0,4.0,68,0.00,,,0.04,,2013-03-02 18:22:00,
2013-03-02 13:32:00,27.0,18.0,30.03,North,355,0.0,6.0,69,0.00,,,0.03,,2013-03-02 18:32:00,
2013-03-02 13:42:00,27.0,18.0,30.03,North,355,0.0,6.0,69,0.00,,,0.03,,2013-03-02 18:42:00,
2013-03-02 13:52:00,27.0,18.0,30.02,West,281,1.0,4.0,67,0.01,,,0.04,,2013-03-02 18:52:00,
2013-03-02 14:01:00,28.0,18.0,30.02,West,279,0.0,2.0,66,0.01,,,0.04,,2013-03-02 19:01:00,
2013-03-02 14:12:00,28.0,18.0,30.02,West,279,0.0,2.0,66,0.01,,,0.04,,2013-03-02 19:12:00,
2013-03-02 14:22:00,28.0,18.0,30.01,North,350,0.0,4.0,67,0.01,,,0.04,,2013-03-02 19:22:00,
2013-03-02 14:32:00,28.0,18.0,30.01,North,355,0.0,7.0,67,0.01,,,0.03,,2013-03-02 19:32:00,
2013-03-02 14:42:00,28.0,18.0,30.01,North,355,0.0,7.0,67,0.01,,,0.03,,2013-03-02 19:42:00,
2013-03-02 14:52:00,28.0,18.0,30.01,NE,46,3.0,5.0,66,0.00,,,0.03,,2013-03-02 19:52:00,
2013-03-02 15:01:00,28.0,18.0,30.01,North,0,1.0,5.0,67,0.00,,,0.03,,2013-03-02 20:01:00,
2013-03-02 15:11:00,28.0,18.0,30.01,North,0,1.0,5.0,67,0.00,,,0.03,,2013-03-02 20:11:00,
2013-03-02 15:22:00,28.0,18.0,30.01,North,9,0.0,3.0,66,0.00,,,0.02,,2013-03-02 20:22:00,
2013-03-02 15:32:00,28.0,19.0,30.01,NNE,29,0.0,1.0,68,0.00,,,0.02,,2013-03-02 20:32:00,
2013-03-02 15:42:00,28.0,19.0,30.01,NNE,29,0.0,1.0,68,0.00,,,0.02,,2013-03-02 20:42:00,
2013-03-02 15:53:00,27.0,18.0,30.01,WNW,297,0.0,4.0,68,0.00,,,0.02,,2013-03-02 20:53:00,
2013-03-02 16:02:00,27.0,18.0,30.01,WNW,298,0.0,0.0,69,0.00,,,0.02,,2013-03-02 21:02:00,
2013-03-02 16:11:00,27.0,18.0,30.01,WNW,298,0.0,0.0,69,0.00,,,0.02,,2013-03-02 21:11:00,
2013-03-02 16:22:00,27.0,18.0,30.01,WNW,285,0.0,2.0,69,0.00,,,0.02,,2013-03-02 21:22:00,
2013-03-02 16:32:00,27.0,18.0,30.01,North,10,0.0,4.0,69,0.00,,,0.02,,2013-03-02 21:32:00,
2013-03-02 16:42:00,27.0,18.0,30.01,North,10,0.0,4.0,69,0.00,,,0.02,,2013-03-02 21:42:00,
2013-03-02 16:52:00,27.0,18.0,30.01,NW,317,0.0,2.0,68,0.00,,,0.01,,2013-03-02 21:52:00,
2013-03-02 17:02:00,27.0,18.0,30.01,NNE,13,0.0,2.0,68,0.00,,,0.01,,2013-03-02 22:02:00,
2013-03-02 17:11:00,27.0,18.0,30.01,NNE,13,0.0,2.0,68,0.00,,,0.01,,2013-03-02 22:11:00,
2013-03-02 17:22:00,27.0,18.0,30.01,NNE,28,0.0,2.0,68,0.00,,,0.01,,2013-03-02 22:22:00,
2013-03-02 17:32:00,27.0,18.0,30.01,NE,37,0.0,2.0,69,0.00,,,0.01,,2013-03-02 22:32:00,
2013-03-02 17:42:00,27.0,18.0,30.01,NE,37,0.0,2.0,69,0.00,,,0.01,,2013-03-02 22:42:00,
2013-03-02 17:52:00,27.0,18.0,30.01,NNE,30,0.0,0.0,68,0.00,,,0.01,,2013-03-02 22:52:00,
2013-03-02 18:01:00,27.0,18.0,30.01,NNE,27,1.0,1.0,69,0.00,,,0.01,,2013-03-02 23:01:00,
2013-03-02 18:11:00,28.0,19.0,30.01,NW,317,0.0,1.0,68,0.00,,,0.01,,2013-03-02 23:11:00,
2013-03-02 18:21:00,28.0,19.0,30.01,NW,317,0.0,1.0,68,0.00,,,0.01,,2013-03-02 23:21:00,
2013-03-02 18:30:00,26.0,17.0,30.01,NW,317,0.0,0.0,69,0.00,,,0.01,,2013-03-02 23:30:00,
2013-03-02 18:32:00,27.0,18.0,30.01,NW,317,0.0,0.0,68,0.00,,,0.01,,2013-03-02 23:32:00,
2013-03-02 18:42:00,27.0,18.0,30.01,NW,317,0.0,0.0,68,0.00,,,0.01,,2013-03-02 23:42:00,
2013-03-02 18:52:00,26.0,17.0,30.01,NW,317,0.0,0.0,69,0.00,,,0.01,,2013-03-02 23:52:00,
2013-03-02 19:02:00,26.0,17.0,30.01,NW,317,0.0,0.0,69,0.00,,,0.01,,2013-03-03 00:02:00,
2013-03-02 19:11:00,26.0,17.0,30.01,NW,317,0.0,0.0,69,0.00,,,0.01,,2013-03-03 00:11:00,
2013-03-02 19:22:00,26.0,17.0,30.01,NW,317,0.0,0.0,69,0.00,,,0.01,,2013-03-03 00:22:00,